Location: Unspecified
(0.0000°N, 0.0000°E)
Time: 06:59:18
(UTC+00:00)

Courier 1B - Visible Passes

Search period start: 26 October 2020 00:00
Search period end: 05 November 2020 00:00
Orbit: 963 x 1209 km, 28.3° (Epoch: 25 October)

Date Brightness Start Highest point End Pass type
(mag) Time Alt. Az. Time Alt. Az. Time Alt. Az.
26 Oct 10.0 05:09:51 10° SSW 05:15:09 20° SSE 05:20:14 10° ESE visible
26 Oct 7.9 18:34:56 10° NW 18:41:42 54° NNE 18:47:16 17° ESE visible
26 Oct 8.9 20:29:07 10° W 20:34:13 39° WSW 20:34:13 39° WSW visible
27 Oct 10.1 04:16:38 10° SSW 04:20:56 16° SSE 04:25:07 10° SE visible
27 Oct 8.0 19:35:04 10° WNW 19:42:03 63° SSW 19:44:43 40° SSE visible
27 Oct 10.4 21:31:33 10° WSW 21:31:42 10° WSW 21:31:42 10° WSW visible
28 Oct 10.2 03:23:46 10° S 03:26:36 12° SSE 03:29:25 10° SE visible
28 Oct 9.3 05:15:09 10° SW 05:21:56 35° SSE 05:28:21 10° E visible
28 Oct 7.7 18:41:14 10° WNW 18:48:09 85° SSW 18:55:16 11° ESE visible
28 Oct 9.4 20:36:46 10° W 20:42:14 27° SSW 20:42:14 27° SSW visible
29 Oct 9.6 04:21:36 10° SSW 04:27:51 26° SSE 04:33:51 10° E visible
29 Oct 9.0 19:42:18 10° W 19:48:38 35° SSW 19:52:48 20° SSE visible
30 Oct 9.9 03:28:12 10° SSW 03:33:40 20° SSE 03:39:00 10° ESE visible
30 Oct 8.6 18:48:07 10° WNW 18:54:40 48° SSW 19:01:40 10° SE visible
30 Oct 9.9 20:45:28 10° WSW 20:49:36 16° SSW 20:50:17 16° SSW visible
31 Oct 10.0 02:37:45 15° S 02:39:24 16° SSE 02:43:44 10° SE visible
31 Oct 8.8 04:27:10 10° SW 04:34:31 45° SSE 04:41:31 10° E visible
31 Oct 8.1 17:54:09 10° WNW 18:00:48 66° SSW 18:07:53 10° SE visible
31 Oct 9.7 19:50:24 10° WSW 19:55:25 20° SSW 20:00:39 10° SSE visible
01 Nov 9.2 03:35:01 16° SSW 03:40:27 34° SSE 03:47:09 10° E visible
01 Nov 9.5 18:55:43 10° W 19:01:21 27° SSW 19:07:16 10° SSE visible
02 Nov 9.5 02:45:28 25° SSE 02:46:19 26° SSE 02:52:29 10° E visible
02 Nov 8.0 04:33:11 10° SW 04:41:01 79° SSE 04:48:27 10° ENE visible
02 Nov 9.1 18:01:20 10° W 18:07:22 36° SSW 18:13:46 10° SE visible
02 Nov 10.2 20:00:03 10° SW 20:02:28 12° SSW 20:04:56 10° S visible
03 Nov 10.3 01:55:58 14° ESE 01:55:58 14° ESE 01:57:27 10° ESE visible
03 Nov 8.3 03:42:56 29° SW 03:47:00 59° SSE 03:54:27 10° ENE visible
03 Nov 10.0 19:04:25 10° SW 19:08:15 15° SSW 19:12:12 10° SSE visible
04 Nov 8.8 02:53:29 43° SE 02:53:29 43° SE 03:00:12 10° E visible
04 Nov 7.9 04:40:27 13° WSW 04:47:26 61° NNW 04:54:49 10° NE visible
04 Nov 9.9 18:09:24 10° WSW 18:14:09 20° SSW 18:19:06 10° SSE visible
